Flight Track Log - Related Links

Times and Time Zones

All times are in EDT time to prevent confusion due to time zone crossing. See the FSR411 flight status page for this flight to view local times or setup timezone preferences in your user account.

Time Position Orientation Groundspeed Altitude Reporting Facility
EDT Latitude Longitude Course Direction KTS MPH feet Rate Location/Type
Wed 07:17:41 AM 40.0833 -88.2531 73° East 206 237 4,500  Level Chicago Center
Wed 07:18:42 AM 40.1031 -88.1711 73° East 236 272 6,400 2,311 Climbing Chicago Center
Wed 07:19:43 AM 40.1314 -88.0822 67° East 267 307 9,200 3,098 Climbing Chicago Center
Wed 07:20:44 AM 40.1625 -87.9828 68° East 291 335 12,700 3,541 Climbing Chicago Center
Wed 07:21:45 AM 40.2014 -87.8561 68° East 347 399 16,400 3,590 Climbing Chicago Center
Wed 07:22:46 AM 40.2411 -87.7297 68° East 373 429 20,000 3,148 Climbing Chicago Center
Wed 07:23:47 AM 40.2831 -87.5942 68° East 399 459 22,800 1,475 Climbing Chicago Center
Wed 07:24:48 AM 40.3333 -87.4239 69° East 441 507 23,000 98 Climbing Chicago Center
Wed 07:25:49 AM 40.3792 -87.2725 68° East 447 514 23,000  Level Chicago Center
Wed 07:26:50 AM 40.4239 -87.1222 69° East 444 511 23,000  Level Chicago Center
Wed 07:27:52 AM 40.4692 -86.9703 69° East 447 514 23,000  Level Chicago Center
Wed 07:28:53 AM 40.5147 -86.8172 69° East 450 518 23,000  Level Chicago Center
Wed 07:29:54 AM 40.5603 -86.6647 68° East 448 516 23,000  Level Chicago Center
Wed 07:30:56 AM 40.6050 -86.5089 69° East 453 521 23,000  Level Chicago Center
Wed 07:31:57 AM 40.6497 -86.3544 69° East 454 522 23,000  Level Chicago Center
Wed 07:32:58 AM 40.6978 -86.1839 70° East 454 522 23,000  Level Chicago Center
Wed 07:34:00 AM 40.7419 -86.0342 69° East 446 513 23,000  Level Chicago Center
Wed 07:35:01 AM 40.7850 -85.8817 70° East 446 513 23,000  Level Chicago Center
Wed 07:36:02 AM 40.8286 -85.7303 69° East 446 513 23,000  Level Chicago Center
Wed 07:37:04 AM 40.8708 -85.5792 70° East 443 510 23,000 -244 Level Chicago Center
Wed 07:38:05 AM 40.9217 -85.3981 70° East 442 509 22,500 -780 Descending Chicago Center
Wed 07:39:07 AM 40.9625 -85.2442 71° East 445 512 21,400 -1,171 Descending Chicago Center
Wed 07:40:08 AM 41.0056 -85.0978 69° East 438 504 20,100 -1,366 Descending Chicago Center
Wed 07:41:10 AM 41.0517 -84.9592 66° East 422 486 18,600 -1,463 Descending Chicago Center
Wed 07:42:11 AM 41.0928 -84.8239 68° East 402 463 17,100 -732 Descending Chicago Center
Wed 07:43:13 AM 41.1331 -84.6922 68° East 392 451 17,100 -49 Level Chicago Center
Wed 07:44:14 AM 41.1825 -84.5311 68° East 396 456 17,000 -780 Descending Chicago Center
Wed 07:45:16 AM 41.2247 -84.3953 68° East 400 460 15,500 -1,452 Descending Chicago Center
Wed 07:46:18 AM 41.2650 -84.2625 68° East 392 451 14,000 -1,463 Descending Chicago Center
Wed 07:47:19 AM 41.3033 -84.1347 68° East 378 435 12,500 -1,366 Descending Chicago Center
Wed 07:48:21 AM 41.3433 -84.0086 67° East 374 430 11,200 -829 Descending Chicago Center
Wed 07:49:22 AM 41.3811 -83.8831 68° East 371 427 10,800 -535 Descending Chicago Center
Wed 07:50:02 AM 41.4008 -83.8008 72° East 367 422 10,300 -471 Descending Cleveland Center
Wed 07:51:04 AM 41.4392 -83.6786 67° East 361 415 10,000 -146 Descending Cleveland Center
Wed 07:52:05 AM 41.4875 -83.5406 65° Northeast 347 399 10,000  Level Cleveland Center
Wed 07:53:05 AM 41.5350 -83.4267 61° Northeast 351 404 10,000  Level Cleveland Center
Wed 07:53:07 AM 41.5353 -83.4272 304° West 351 404 10,000  Level Cleveland Center
Wed 07:54:06 AM 41.5817 -83.3106 62° Northeast 357 411 10,000  Level Cleveland Center
Wed 07:54:09 AM 41.5803 -83.3114 204° Southwest 353 406 10,000  Level Cleveland Center
Wed 07:55:11 AM 41.6267 -83.1939 62° Northeast 357 411 10,000  Level Cleveland Center
Wed 07:56:02 AM 41.6681 -83.0906 62° Northeast 347 399 10,000  Level Cleveland Center
Wed 07:56:12 AM 41.6703 -83.0825 70° East 346 398 10,000  Level Cleveland Center
Wed 07:57:02 AM 41.7094 -82.9844 62° Northeast 304 350 10,000  Level Cleveland Center
Wed 07:57:14 AM 41.7131 -82.9767 58° Northeast 328 377 10,000  Level Cleveland Center
Wed 07:57:57 AM 41.7533 -82.9008 55° Northeast 300 345 10,000  Level Cleveland Center
Wed 07:58:16 AM 41.7678 -82.8708 57° Northeast 293 337 10,000  Level Cleveland Center
Wed 07:58:58 AM 41.8022 -82.8092 53° Northeast 288 331 10,000  Level Cleveland Center
Wed 07:59:18 AM 41.8175 -82.7889 45° Northeast 291 335 10,000 -74 Level Cleveland Center
Wed 08:00:19 AM 41.8803 -82.7281 36° Northeast 283 326 9,900 -277 Descending Cleveland Center
Wed 08:00:23 AM 41.8883 -82.7197 38° Northeast 286 329 9,700 -2,034 Descending Cleveland Center
Wed 08:01:18 AM 41.9553 -82.7200 360° North 267 307 7,900 -1,759 Descending Cleveland Center
Wed 08:01:21 AM 41.9511 -82.7197 177° South 278 320 8,000 -1,855 Climbing Cleveland Center
Wed 08:02:13 AM 42.0203 -82.7481 343° North 264 304 6,200 -1,742 Descending Cleveland Center
Wed 08:02:23 AM 42.0194 -82.7467 129° Southeast 262 302 6,200 -1,417 Level Cleveland Center
Wed 08:03:25 AM 42.0875 -82.7747 343° North 259 298 4,500 -1,676 Descending Cleveland Center
Wed 08:04:14 AM 42.1525 -82.8022 343° North 244 281 3,100 -1,452 Descending Cleveland Center
Wed 08:04:27 AM 42.1647 -82.8083 340° North 248 285 3,000 -98 Descending Cleveland Center
Wed 08:05:15 AM 42.2133 -82.8300 342° North 231 266 3,000  Level Cleveland Center
Wed 08:05:29 AM 42.2253 -82.8339 346° North 235 270 3,000  Level Cleveland Center
Wed 08:06:22 AM 42.2747 -82.8747 329° Northwest 210 242 3,000  Level Cleveland Center
Wed 08:06:30 AM 42.2775 -82.8758 344° North 218 251 3,000  Level Cleveland Center
Wed 08:07:22 AM 42.3139 -82.9139 322° Northwest 168 193 3,000 -97 Level Cleveland Center
Wed 08:07:32 AM 42.3156 -82.9150 334° Northwest 183 211 2,900 -896 Descending Cleveland Center
Wed 08:08:29 AM 42.3550 -82.9531 325° Northwest 155 178 2,000 -871 Descending Cleveland Center
Wed 08:08:34 AM 42.3514 -82.9503 150° Southeast 170 196 2,000 -537 Level Cleveland Center
Wed 08:09:36 AM 42.3781 -82.9786 322° Northwest 144 166 1,400 -532 Descending Cleveland Center
Wed 08:10:38 AM 42.4047 -83.0056 323° Northwest 124 143 900 -484 Descending Cleveland Center

Login

Don't have an account? Register now (free) for customized features, flight alerts, and more!